Regional Weather Roundup
Issued by NWS

Home | Current Version | Previous Version | Graphics & Text | Print | Product List | Glossary On
Versions: 1 2 3 4 5 6 7 8 9 10 11 12 13 14 15 16 17 18 19 20 21 22 23 24 25 26 27 28 29 30 31 32 33 34 35 36 37 38 39 40 41 42 43 44 45 46 47 48 49 50
000
ASUS43 KLOT 170206
RWRIL

ILLINOIS REGIONAL WEATHER ROUNDUP
NATIONAL WEATHER SERVICE CHICAGO/ROMEOVILLE IL
900 PM CDT WED APR 16 2014

NOTE: "FAIR" INDICATES FEW OR NO CLOUDS BELOW 12,000 FEET WITH NO
SIGNIFICANT WEATHER AND/OR OBSTRUCTIONS TO VISIBILITY.

* THESE STATIONS ARE NOT UNDER NWS QUALITY CONTROL. THEY ALSO MAY NOT
  REPORT WEATHER SUCH AS PRECIPITATION OR FOG.

ILZ001-002-007-009-015-016-024-170300-
NORTHWEST ILLINOIS

CITY           SKY/WX    TMP DP  RH WIND       PRES   REMARKS
MOLINE         CLOUDY    50  27  40 SE14G23   30.02S
STERLING*      CLOUDY    46  28  49 SE7       30.08R
SAVANNA*       CLOUDY    50  28  43 SE16      30.04S
$$

ILZ003-004-008-010-011-017-018-170300-
NORTH CENTRAL ILLINOIS

CITY           SKY/WX    TMP DP  RH WIND       PRES   REMARKS
ROCKFORD       CLOUDY    47  28  47 S17       30.13R
FREEPORT*      MOCLDY    46  32  57 S15       30.10R
ROCHELLE*      MOCLDY    45  30  57 S10       30.11R
DE KALB*       MOCLDY    43  28  56 SE15      30.10R
$$

ILZ005-006-012>014-019>023-170300-
NORTHEAST ILLINOIS

CITY           SKY/WX    TMP DP  RH WIND       PRES   REMARKS
CHICAGO-OHARE  CLOUDY    47  23  38 SE22      30.13S
CHICAGO-MIDWAY MOCLDY    48  24  39 SE17G26   30.16R
AURORA         PTCLDY    46  26  45 SE18      30.11R
LANSING*       PTCLDY    46  23  41 SE13G22   30.17R
WAUKEGAN       CLOUDY    41  29  62 SE16      30.12F
DUPAGE AIRPORT PTCLDY    47  23  38 SE17G28   30.11S
KANKAKEE*      PTCLDY    45  28  50 SE13      30.16S
WHEELING       CLOUDY    48  24  39 SE17G25   30.14S
MORRIS*        PTCLDY    47  23  39 SE15      30.11S
NORTHERLY ISL    N/A     45  33  63 SE16        N/A
$$

LMZ740>746-170300-
SOUTHERN LAKE MICHIGAN

STATION/POSITION SKY/WX   TEMP    WIND        PRES    VSBY  WAVE
                          AIR SEA DIR/SP/G                  HT/PER
                          (F)     (DEG/KT/KT) (MB)    (MI)  (FT/S)
WAUKEGAN HARBOR            40     130/ 17/ 19 1022.0F
HARRISON CRIB              45     130/ 22/ 26   N/A
BURNHAM HARBOR             45     130/ 16/ 20   N/A
CALUMET HARBOR             47     120/ 14/ 19 1021.9F
MICHIGAN CITY              46     110/ 11/ 16   N/A
$$

ILZ025>027-034>036-040-047-049-050-058-095>099-170300-
WEST-CENTRAL ILLINOIS

CITY           SKY/WX    TMP DP  RH WIND       PRES   REMARKS
QUINCY         PTCLDY    48  29  47 SE10      30.02R
GALESBURG*     CLOUDY    48  31  50 SE10      30.05R
MACOMB*        CLOUDY    48  31  50 SE13      30.07R
JACKSONVILLE*  PTCLDY    48  30  50 SE7       30.09R
PITTSFIELD*    PTCLDY    50  26  39 SE9       30.07R
$$

ILZ028>032-037-038-041>044-048-051>054-059>061-170300-
CENTRAL ILLINOIS

CITY           SKY/WX    TMP DP  RH WIND       PRES   REMARKS
PONTIAC        PTCLDY    46  30  53 SE15      30.11S
BLOOMINGTON    PTCLDY    42  27  55 S14       30.12R
DECATUR        PTCLDY    47  30  51 SE15      30.11R
PEORIA         PTCLDY    49  26  41 S9        30.11R
LACON*         PTCLDY    47  28  47 S12       30.10R
LINCOLN*       PTCLDY    46  31  54 S10       30.10S
SPRINGFIELD    PTCLDY    49  27  42 SE14G24   30.09R
TAYLORVILLE    PTCLDY    45  30  57 SE16G22   30.09R
$$

ILZ033-039-045-046-055>057-062-063-170300-
EAST-CENTRAL ILLINOIS

CITY           SKY/WX    TMP DP  RH WIND       PRES   REMARKS
CHAMPAIGN      PTCLDY    43  30  60 SE12      30.14S
RANTOUL*       MOCLDY    46  29  51 SE10      30.15F
MATTOON        CLEAR     45  28  51 SE12      30.14R
PARIS*         PTCLDY    44  30  58 SE9       30.19R
$$

ILZ079-100>102-170300-
SOUTHWEST ILLINOIS

CITY           SKY/WX    TMP DP  RH WIND       PRES   REMARKS
ALTON          CLEAR     50  19  29 SE7       30.09
BELLEVILLE     CLEAR     49  29  46 SE12      30.10R
CAHOKIA*       CLEAR     50  29  44 S13       30.09R
SPARTA*        CLEAR     46  30  53 S5        30.13R
$$

ILZ064>066-069>071-074>076-080>082-084>086-088>090-092>094-170300-
SOUTH-CENTRAL ILLINOIS

CITY           SKY/WX    TMP DP  RH WIND       PRES   REMARKS
CARBONDALE     CLEAR     44  31  60 SE7       30.14R
CAIRO*         PTCLDY    52  33  46 CALM      30.15R
MARION         PTCLDY    50  28  43 SE3       30.16R
MT. VERNON     CLEAR     48  25  40 E5        30.16R
CENTRALIA*       N/A     47  29  49 SE12      30.13F
SALEM*         CLEAR     49  31  49 SE8       30.15R
METROPOLIS*    MOCLDY    47  29  50 CALM      30.15S
$$

ILZ067-068-072-073-078-083-087-091-170300-
SOUTHEAST ILLINOIS

CITY           SKY/WX    TMP DP  RH WIND       PRES   REMARKS
FAIRFIELD*     PTCLDY    46  34  61 SE6       30.17R
HARRISBURG*    PTCLDY    47  33  57 SE5       30.18R
ROBINSON*      PTCLDY    45  32  60 SE7       30.20R
CARMI*         PTCLDY    47  37  68 E10       30.17R
$$

ABBREVIATIONS USED IN REMARKS
   TC - TEMPERATURE IN CELSIUS
  WCI - WIND CHILL INDEX
   HX - HEAT INDEX
  VSB - VISIBILITY
$$




USA.gov is the U.S. government's official web portal to all federal, state and local government web resources and services.